Helicity
14 8 13 15 13 8 13 13 12 12 16 11 20 31 46 50 51 50 77 83 82 68 53 48 40 35 44 58 76 92 92 85 60 49 67 64 75 68 98 128 125 127 126
14 13 16 16 15 15 14 11 14 16 17 15 26 39 41 43 46 53 69 88 83 71 56 44 41 42 32 61 71 79 76 73 61 64 64 72 77 58 55 69 75 82 75
18 18 21 17 23 18 11 9 17 17 25 35 44 47 49 47 44 54 64 62 68 71 54 48 37 32 34 28 27 38 56 51 48 84 87 81 77 58 38 35 34 36 35
21 20 24 33 21 16 18 22 27 22 40 46 44 54 55 55 47 46 52 53 54 44 58 54 37 39 31 22 17 20 48 67 66 73 100 97 66 35 34 18 27 47 53
25 21 34 33 20 22 26 24 27 25 37 42 33 45 59 56 51 43 43 56 58 40 31 50 42 33 33 24 21 23 21 34 53 59 69 88 77 50 42 27 32 50 63
36 30 29 28 25 25 33 30 28 36 38 35 29 37 50 56 54 60 54 59 63 56 44 26 25 39 57 28 18 21 32 22 14 33 46 53 57 58 60 54 40 42 45
43 37 35 33 35 35 37 35 34 39 38 40 29 54 59 52 41 43 37 42 60 50 43 30 24 29 32 41 27 23 24 21 19 12 25 35 33 30 35 31 26 28 28
61 51 50 53 45 34 37 40 43 35 38 51 35 26 40 57 52 66 56 49 52 51 45 34 24 26 21 34 51 60 38 19 20 29 21 20 25 25 21 15 30 30 25
78 74 72 64 54 41 45 43 49 44 44 59 57 40 35 58 47 54 51 50 54 53 55 44 34 29 35 41 43 59 63 41 26 17 20 14 8 23 21 22 27 25 20
98 95 80 65 55 47 48 50 54 57 55 54 53 57 52 60 56 35 43 45 57 49 48 52 48 43 40 38 49 49 64 46 35 34 24 17 6 19 15 26 29 29 31
99 94 75 65 60 52 55 57 58 58 57 54 54 52 47 44 39 51 44 39 45 43 56 56 49 59 75 68 63 86 74 51 40 33 29 24 21 24 22 27 33 35 39
91 86 73 68 60 59 64 67 67 62 64 63 60 55 55 63 48 47 44 47 37 29 39 56 56 63 62 63 78 107 80 62 49 39 33 22 21 35 35 34 41 44 42
102 94 83 82 78 79 77 76 74 71 69 63 54 54 58 57 54 57 59 58 54 50 42 26 33 49 66 70 57 81 85 57 50 38 32 38 38 34 32 32 36 48 57
109 99 94 88 85 77 73 71 71 70 65 63 53 52 62 63 61 60 62 62 67 70 59 34 41 39 44 60 66 88 68 82 56 32 36 41 42 46 39 33 39 45 51
97 91 85 82 79 76 77 77 78 87 95 90 82 72 67 64 65 66 71 71 76 99 83 64 67 49 43 52 69 72 71 75 80 61 49 46 49 45 42 43 38 39 51
89 85 85 83 82 84 90 96 104 113 115 109 101 91 87 87 80 82 80 75 78 87 146 77 82 76 67 68 61 68 64 75 74 47 52 57 54 50 48 44 46 43 44
84 82 85 90 97 103 110 113 116 112 108 105 95 89 80 83 92 102 106 107 112 109 125 104 78 71 73 61 62 61 66 81 75 50 53 55 55 53 51 48 44 49 51
75 87 97 107 115 117 115 115 114 116 111 110 112 111 98 107 100 99 107 99 103 100 117 92 84 87 77 70 70 84 81 90 90 87 71 64 60 57 53 50 50 48 51
83 93 104 116 119 118 115 112 108 108 114 117 115 118 119 123 125 125 129 133 129 130 123 127 110 100 96 94 95 79 80 82 94 99 82 61 57 59 59 54 52 55 58
105 104 102 102 102 99 88 85 89 90 95 99 103 108 114 120 126 129 134 134 128 151 148 160 156 141 113 121 132 117 109 104 110 103 91 70 93 92 77 65 58 70 77
89 97 93 87 78 75 72 94 97 102 106 110 115 115 118 124 132 112 138 144 141 158 161 147 146 129 117 107 124 100 126 116 107 107 114 100 91 94 99 70 77 75 81
95 91 88 84 80 81 81 73 85 100 99 101 101 110 110 106 91 77 73 63 90 132 137 134 123 105 88 85 106 127 115 120 132 66 79 111 105 112 103 105 102 104 84
79 69 65 67 68 64 53 39 53 89 94 90 95 101 113 101 86 88 89 69 63 53 59 101 125 117 109 96 79 83 62 72 73 68 53 87 93 116 97 98 102 94 80
61 66 71 65 65 52 27 22 45 72 88 92 101 112 119 113 96 96 98 100 75 69 72 87 87 96 89 85 86 81 76 75 62 51 63 71 57 97 101 94 88 85 83
65 70 74 64 55 50 40 34 74 103 95 91 97 110 112 113 85 71 76 84 70 73 59 36 46 42 41 50 66 88 100 93 87 66 92 74 57 69 80 86 87 86 96
91 109 101 90 75 71 77 82 74 101 100 115 102 98 87 88 70 60 84 77 85 65 55 57 66 44 37 45 40 67 70 84 92 91 89 121 90 73 48 78 82 80 76
Wind_Speed
40 43 46 49 51 53 56 58 60 62 63 61 58 53 49 45 45 43 43 49 48 49 51 55 57 57 53 53 52 54 53 48 48 50 52 48 42 34 39 44 46 47 47
40 44 46 48 51 53 55 56 59 60 62 59 58 53 48 45 44 44 43 44 47 47 49 53 55 59 54 55 54 50 51 48 46 50 54 47 40 37 38 44 47 49 49
41 43 45 48 50 51 53 56 59 59 61 60 56 51 46 45 44 43 43 42 41 44 47 49 52 54 56 56 55 49 45 41 40 45 49 45 45 45 49 48 50 52 53
41 43 45 47 49 50 53 56 59 60 61 61 55 50 45 43 42 41 41 40 41 40 38 44 46 48 51 54 56 52 48 47 48 46 45 47 42 41 48 49 50 52 52
40 43 45 46 48 50 53 57 58 60 60 61 54 46 42 42 41 38 40 38 37 37 38 39 39 41 46 47 51 54 47 48 47 44 41 47 51 50 49 50 50 51 52
40 42 44 46 47 50 53 57 59 59 57 60 53 46 37 39 39 38 43 37 36 36 38 39 39 40 42 44 43 48 47 49 49 47 41 42 48 49 51 52 52 53 54
39 41 43 45 48 51 54 56 59 61 59 61 56 54 42 37 36 39 39 36 34 35 37 35 34 35 36 38 33 38 43 46 45 45 44 44 47 47 52 55 53 52 51
39 40 42 45 49 53 55 57 59 61 58 58 59 54 55 43 41 50 38 40 37 38 37 41 39 31 32 29 30 30 36 43 46 46 49 45 50 46 53 55 53 52 51
37 40 43 47 50 53 57 58 58 60 62 57 56 54 57 52 63 44 49 46 43 51 36 47 42 38 35 32 30 24 27 37 44 49 51 53 50 48 50 54 54 53 52
38 41 45 48 52 54 57 57 56 56 57 61 56 48 47 49 54 62 48 51 55 54 56 52 45 45 41 33 29 24 26 31 39 50 53 52 50 52 55 57 57 56 56
38 43 47 50 53 54 55 56 56 54 53 54 54 54 51 49 49 59 70 58 63 62 61 56 58 49 42 40 34 27 24 26 32 44 53 52 55 55 55 58 59 59 58
40 46 49 52 53 54 54 55 55 54 55 54 53 52 51 52 55 61 65 71 73 63 64 61 54 52 47 47 38 34 28 28 32 41 50 52 53 55 56 58 59 59 59
45 49 52 53 54 56 57 57 57 56 56 56 56 56 54 53 55 59 64 69 69 70 65 56 52 53 47 50 42 32 32 33 37 44 47 52 54 53 54 57 58 58 59
49 50 52 54 56 58 58 58 57 58 59 59 61 61 60 59 58 60 64 70 79 73 71 65 58 54 55 51 49 41 40 39 45 51 54 53 50 54 51 53 56 57 57
49 50 53 57 59 60 60 61 62 64 64 64 65 65 65 64 63 64 65 66 70 80 79 67 71 56 56 58 58 55 55 58 55 58 58 57 55 51 49 51 51 53 55
51 55 58 60 62 63 64 65 66 66 69 68 68 70 70 68 69 67 67 68 69 75 81 77 78 76 72 67 64 67 69 69 65 65 61 58 56 54 51 50 51 50 48
56 59 61 64 67 69 70 71 72 73 75 76 75 76 77 76 76 76 74 73 75 76 86 85 82 80 80 78 74 71 70 69 69 65 63 63 61 58 54 51 49 50 48
59 63 67 70 72 74 76 78 80 81 83 84 83 82 82 80 80 79 78 78 79 79 85 94 89 87 84 81 80 80 78 74 74 71 68 68 66 63 60 54 50 46 44
65 68 71 75 77 79 82 82 83 84 84 84 85 86 87 86 86 84 83 84 83 84 85 91 96 89 88 84 85 79 80 78 75 76 74 72 71 69 66 62 57 49 44
70 72 74 78 79 81 82 83 84 86 86 85 86 86 86 86 87 87 86 85 85 87 87 89 92 91 89 86 84 86 87 78 80 74 73 74 73 67 65 63 60 52 47
70 74 77 78 79 81 81 86 87 88 89 90 89 89 88 87 89 89 88 88 87 89 91 93 95 94 92 89 88 83 84 86 83 78 80 78 74 69 65 64 62 54 50
73 77 80 82 84 83 85 88 90 92 92 93 94 93 92 92 90 88 86 83 83 91 94 95 96 95 93 88 84 86 87 88 90 66 70 72 65 69 65 63 60 57 51
79 81 83 84 87 87 88 91 92 93 94 92 93 94 93 88 87 86 82 79 76 73 72 81 88 87 89 84 83 85 83 82 85 76 73 83 70 75 69 61 56 54 55
83 85 86 87 90 89 90 92 93 92 92 91 89 88 88 87 81 81 81 79 74 72 72 72 76 81 80 80 79 80 79 77 76 74 68 82 68 71 67 63 60 58 57
86 87 87 90 93 93 90 90 89 88 89 88 81 79 80 79 76 73 72 74 76 79 76 75 80 81 81 78 77 78 79 82 84 78 65 72 71 69 65 64 58 56 56
91 91 93 91 92 94 88 83 79 81 84 83 80 76 71 69 70 73 72 72 75 78 78 77 73 70 69 68 68 67 71 77 76 78 63 67 68 62 62 53 55 55 56
Wind_Direction
356 354 355 359 3 4 5 5 3 4 7 12 16 22 26 29 26 25 29 19 20 18 14 11 10 8 7 5 10 12 10 12 6 358 348 355 358 14 349 312 304 305 308
352 351 354 357 359 2 4 3 2 5 5 10 13 19 23 25 22 22 24 23 20 20 16 11 10 5 4 4 6 10 8 8 9 3 351 357 12 14 357 312 306 306 308
349 350 352 353 357 1 1 0 359 2 3 6 10 15 20 20 17 18 21 22 21 21 16 12 10 6 1 2 4 9 10 17 19 10 4 8 355 345 324 316 308 303 303
345 347 349 351 354 357 358 358 358 359 1 3 8 11 16 15 12 15 17 19 16 18 21 15 11 8 3 360 1 6 7 5 357 359 2 5 10 6 333 321 315 310 309
343 343 345 349 352 353 353 354 356 358 359 360 5 10 14 9 6 11 12 13 16 17 16 16 14 9 6 5 1 359 5 2 359 0 4 357 348 343 337 320 308 296 294
340 341 343 345 349 350 350 351 351 355 357 356 1 6 11 6 3 5 4 8 11 15 15 15 14 8 3 5 6 357 360 357 356 355 3 360 350 349 333 319 311 301 293
339 341 343 344 346 346 347 349 350 350 351 354 354 355 3 2 357 358 0 5 8 10 10 14 15 13 11 4 9 4 357 355 358 358 359 354 345 346 329 308 300 295 285
339 341 343 344 344 343 344 346 347 346 348 353 349 350 349 355 351 344 354 352 355 358 359 1 4 9 6 6 5 5 359 352 350 355 346 352 339 344 330 309 302 293 288
341 342 342 342 342 343 342 343 346 344 342 347 350 348 344 344 338 344 341 342 343 341 350 348 352 354 357 1 3 7 6 355 348 344 340 332 335 338 332 309 301 292 289
340 340 340 341 341 341 341 343 346 345 344 341 347 351 347 343 339 329 339 336 334 335 333 338 345 346 349 352 355 359 359 355 348 336 335 331 330 328 321 307 301 295 294
340 340 339 340 341 342 343 344 344 345 345 344 344 344 343 341 336 325 322 329 326 328 329 332 333 338 342 345 346 347 349 351 349 340 331 329 322 321 318 312 305 302 300
337 338 339 340 341 343 343 343 342 342 340 340 340 339 338 337 332 325 322 321 320 326 326 328 332 332 333 334 333 332 335 337 340 339 332 327 322 318 315 312 310 309 306
332 334 337 339 340 340 338 338 338 337 337 336 334 333 334 332 329 325 321 320 320 321 323 324 327 328 329 328 329 327 324 325 328 330 330 324 320 318 314 311 310 309 310
330 336 338 338 337 336 336 336 335 334 332 331 329 328 328 327 325 322 319 318 315 317 318 320 322 320 322 323 321 320 316 315 317 319 319 318 318 314 315 312 309 308 308
334 337 336 333 333 333 334 332 330 329 328 327 326 325 324 323 322 320 318 316 314 313 312 316 315 320 319 317 316 313 310 308 309 311 312 311 311 311 310 309 311 310 307
334 332 331 331 330 330 329 328 327 326 324 323 322 321 320 319 318 317 315 313 311 308 306 310 310 310 310 310 309 307 305 304 304 304 304 305 305 306 306 306 306 308 310
330 329 329 328 327 327 326 325 323 322 320 319 318 317 315 315 314 313 311 309 307 306 303 305 306 307 306 305 305 305 304 303 302 301 301 300 300 300 300 300 301 302 303
329 328 327 326 325 325 324 322 320 319 318 316 316 315 314 314 312 312 310 308 307 305 303 303 303 304 303 303 302 301 301 299 297 299 298 297 296 296 295 295 295 297 299
326 326 325 324 324 323 322 320 319 318 316 315 314 313 312 311 309 309 307 305 305 304 303 301 301 301 302 302 300 300 299 297 297 296 294 294 292 291 290 290 289 289 291
325 325 325 324 323 323 322 321 320 318 317 315 314 313 312 310 309 308 307 305 304 303 303 301 300 301 300 300 299 297 296 296 295 295 295 293 291 289 287 286 286 284 284
325 325 324 324 324 323 323 322 321 319 317 315 314 313 312 310 308 306 305 304 303 302 301 300 299 299 299 299 297 297 294 295 294 293 292 291 290 287 286 283 281 279 279
325 324 323 323 322 323 323 322 321 318 316 315 313 313 312 311 309 307 304 302 301 300 299 298 298 297 297 297 299 296 295 294 292 295 292 290 291 289 287 284 280 276 274
323 323 322 322 321 321 321 320 319 317 315 314 313 313 312 312 312 310 307 304 302 300 299 299 298 297 297 297 296 294 293 291 290 292 292 286 289 286 286 284 280 277 274
323 322 321 321 321 321 321 320 319 318 315 314 314 314 313 313 314 313 310 307 305 304 302 300 298 298 297 295 294 293 292 291 291 291 290 285 289 284 286 284 280 276 273
321 321 322 321 320 320 321 321 321 320 318 317 318 317 315 313 313 314 313 309 306 304 303 300 298 297 297 298 296 293 290 288 287 286 286 285 284 285 283 281 280 278 275
320 320 320 321 321 320 322 323 324 321 320 319 320 319 318 316 315 314 311 308 306 305 305 303 303 303 303 301 299 298 296 291 291 289 291 284 283 283 282 283 281 279 276